Date String (YYYY-MM-DD hh:mm:ss) UTC,Instrument flags,absolute air pressure of the measurement (hPa),sample flow rate (lpm),inlet stack bypass flow (lpm),air temperature of the measurement (°C),ambient temperature measured by the external sensor (°C),aerosol sample conditioner tube jacket temperature (°C),OPC LED temperature (°C),internal box temperature (°C),relative humidity of the measurement (%),span deviation,mass concentration of particles derived from Lorenz-Mie calculation of OPC scattering (μg/m³),mass concentration of particles derived from Lorenz-Mie calculation of OPC scattering (μg/m³),mass concentration of particles derived from Lorenz-Mie calculation of OPC scattering (μg/m³)
DateTimeUTC,F1_M11,P_M11,Q1_M11,Q2_M11,T1_M11,T2_M11,T3_M11,T4_M11,T5_M11,U1_M11,ZSPAN_M11,X0_M11,X2_M11,X1_M11
2024-01-25 20:00:00,SystemResetWarning,0825.3,4.99,000.00,024.2,023.6,000.0,032.5,025.5,13.3,0000.0,0010.12,0004.50,0004.15
2024-01-25 20:01:00,SystemResetWarning,0825.2,5.00,000.00,024.2,023.6,000.0,032.5,025.5,13.4,0000.0,0009.91,0004.36,0004.05
2024-01-25 20:02:00,SystemResetWarning,0825.3,5.01,000.00,024.2,023.6,000.0,032.5,025.5,13.0,0000.0,0010.11,0004.27,0003.98
2024-01-25 20:03:00,SystemResetWarning,0825.2,5.00,000.00,024.2,023.5,000.0,032.5,025.5,12.8,0000.0,0009.62,0004.20,0003.92
2024-01-25 20:04:00,SystemResetWarning,0825.2,5.00,000.00,024.2,023.5,000.0,032.5,025.5,12.7,0000.0,0009.36,0004.15,0003.87
2024-01-25 20:05:00,SystemResetWarning,0825.2,5.00,000.00,024.2,023.5,000.0,032.5,025.5,12.8,0000.0,0009.15,0004.08,0003.81
2024-01-25 20:06:00,SystemResetWarning,0825.2,4.99,000.00,024.2,023.5,000.0,032.5,025.5,12.8,0000.0,0008.29,0004.03,0003.74
2024-01-25 20:07:00,SystemResetWarning,0825.2,4.99,000.00,024.2,023.5,000.0,032.5,025.5,12.6,0000.0,0007.85,0003.97,0003.69
2024-01-25 20:08:00,SystemResetWarning,0825.2,5.00,000.00,024.2,023.5,000.0,032.5,025.5,12.8,0000.0,0007.80,0003.94,0003.67
2024-01-25 20:09:00,SystemResetWarning,0825.2,5.00,000.00,024.2,023.5,000.0,032.5,025.5,12.8,0000.0,0007.77,0003.94,0003.68
2024-01-25 20:10:00,SystemResetWarning,0825.1,5.01,000.00,024.2,023.5,000.0,032.5,025.5,12.8,0000.0,0007.77,0003.97,0003.72
2024-01-25 20:11:00,SystemResetWarning,0825.1,5.01,000.00,024.2,023.5,000.0,032.5,025.5,12.9,0000.0,0007.86,0004.06,0003.80
2024-01-25 20:12:00,SystemResetWarning,0825.1,5.00,000.00,024.2,023.5,000.0,032.5,025.5,12.8,0000.0,0007.94,0004.13,0003.85
2024-01-25 20:13:00,SystemResetWarning,0825.1,5.00,000.00,024.2,023.6,000.0,032.5,025.5,12.7,0000.0,0007.61,0004.19,0003.89
2024-01-25 20:14:00,SystemResetWarning,0825.1,5.00,000.00,024.2,023.6,000.0,032.5,025.5,12.6,0000.0,0007.29,0004.20,0003.92
2024-01-25 20:15:00,SystemResetWarning,0825.1,4.99,000.00,024.2,023.5,000.0,032.5,025.5,12.7,0000.0,0007.69,0004.25,0003.97
2024-01-25 20:16:00,SystemResetWarning,0825.1,5.00,000.00,024.2,023.5,000.0,032.5,025.5,12.7,0000.0,0007.75,0004.36,0004.05
2024-01-25 20:17:00,SystemResetWarning,0825.1,5.01,000.00,024.2,023.5,000.0,032.5,025.5,12.6,0000.0,0007.87,0004.44,0004.12
2024-01-25 20:18:00,SystemResetWarning,0825.1,5.01,000.00,024.2,023.5,000.0,032.5,025.5,12.6,0000.0,0007.95,0004.52,0004.18
2024-01-25 20:19:00,SystemResetWarning,0825.1,5.00,000.00,024.2,023.5,000.0,032.5,025.5,12.5,0000.0,0007.95,0004.53,0004.19
2024-01-25 20:20:00,SystemResetWarning,0825.1,5.01,000.00,024.2,023.5,000.0,032.5,025.5,12.2,0000.0,0008.08,0004.52,0004.18
2024-01-25 20:21:00,SystemResetWarning,0825.1,4.99,000.00,024.2,023.5,000.0,032.5,025.5,12.1,0000.0,0008.62,0004.51,0004.16
2024-01-25 20:22:00,SystemResetWarning,0825.1,4.99,000.00,024.2,023.5,000.0,032.5,025.5,12.0,0000.0,0008.60,0004.49,0004.14
2024-01-25 20:23:00,SystemResetWarning,0825.1,5.00,000.00,024.2,023.5,000.0,032.5,025.5,12.3,0000.0,0008.71,0004.52,0004.17
2024-01-25 20:24:00,SystemResetWarning,0825.1,5.01,000.00,024.2,023.5,000.0,032.5,025.5,12.5,0000.0,0008.89,0004.56,0004.23
2024-01-25 20:25:00,SystemResetWarning,0825.1,5.01,000.00,024.2,023.5,000.0,032.5,025.5,12.3,0000.0,0009.10,0004.66,0004.30
2024-01-25 20:26:00,SystemResetWarning,0825.0,5.01,000.00,024.2,023.5,000.0,032.5,025.5,12.3,0000.0,0008.72,0004.70,0004.34
2024-01-25 20:27:00,SystemResetWarning,0825.0,5.00,000.00,024.2,023.5,000.0,032.5,025.5,12.5,0000.0,0008.66,0004.68,0004.34
2024-01-25 20:28:00,SystemResetWarning,0825.0,5.00,000.00,024.2,023.5,000.0,032.5,025.5,12.6,0000.0,0008.63,0004.64,0004.32
2024-01-25 20:29:00,SystemResetWarning,0825.0,5.00,000.00,024.2,023.5,000.0,032.5,025.5,12.7,0000.0,0008.64,0004.61,0004.30
2024-01-25 20:30:00,SystemResetWarning,0825.0,5.00,000.00,024.2,023.5,000.0,032.5,025.5,12.7,0000.0,0008.60,0004.61,0004.31
2024-01-25 20:31:00,SystemResetWarning,0825.0,5.00,000.00,024.2,023.5,000.0,032.5,025.5,12.7,0000.0,0008.56,0004.65,0004.35
2024-01-25 20:32:00,SystemResetWarning,0825.0,5.00,000.00,024.2,023.5,000.0,032.5,025.5,12.6,0000.0,0008.18,0004.70,0004.41
2024-01-25 20:33:00,SystemResetWarning,0825.0,5.00,000.00,024.2,023.5,000.0,032.5,025.5,12.7,0000.0,0008.21,0004.76,0004.46
2024-01-25 20:34:00,SystemResetWarning,0825.0,5.00,000.00,024.2,023.5,000.0,032.6,025.5,12.6,0000.0,0008.19,0004.77,0004.48
2024-01-25 20:35:00,SystemResetWarning,0825.0,5.00,000.00,024.2,023.5,000.0,032.6,025.5,12.4,0000.5,0008.09,0004.76,0004.48
2024-01-25 20:36:00,SystemResetWarning,0825.0,5.00,000.00,024.2,023.5,000.0,032.6,025.5,12.4,0001.3,0007.78,0004.75,0004.46
2024-01-25 20:37:00,SystemResetWarning,0825.0,5.00,000.00,024.2,023.6,000.0,032.6,025.5,12.5,0002.6,0007.85,0004.74,0004.45
2024-01-25 20:38:00,SystemResetWarning,0825.0,5.00,000.00,024.2,023.6,000.0,032.6,025.6,12.6,0003.1,0008.01,0004.70,0004.41
2024-01-25 20:39:00,SystemResetWarning,0825.0,5.00,000.00,024.2,023.6,000.0,032.6,025.6,12.5,0003.1,0007.98,0004.68,0004.39
2024-01-25 20:40:00,SystemResetWarning,0825.0,5.00,000.00,024.3,023.6,000.0,032.6,025.6,12.5,0001.9,0007.79,0004.66,0004.37
2024-01-25 20:41:00,SystemResetWarning,0825.0,5.00,000.00,024.3,023.6,000.0,032.6,025.6,12.5,0000.0,0007.74,0004.62,0004.35
2024-01-25 20:42:00,SystemResetWarning,0825.0,5.00,000.00,024.3,023.6,000.0,032.6,025.6,12.4,0000.0,0007.72,0004.59,0004.32
2024-01-25 20:43:00,SystemResetWarning,0825.0,5.00,000.00,024.3,023.6,000.0,032.6,025.5,12.5,0000.0,0007.65,0004.54,0004.27
2024-01-25 20:44:00,SystemResetWarning,0824.9,5.00,000.00,024.3,023.6,000.0,032.6,025.5,12.4,0000.0,0007.49,0004.44,0004.18
2024-01-25 20:45:00,SystemResetWarning,0824.9,5.00,000.00,024.3,023.6,000.0,032.6,025.5,12.3,0000.0,0007.34,0004.35,0004.10
2024-01-25 20:46:00,SystemResetWarning,0825.0,5.00,000.00,024.3,023.6,000.0,032.6,025.5,12.3,0000.0,0007.25,0004.27,0004.02
2024-01-25 20:47:00,SystemResetWarning,0825.0,5.00,000.00,024.3,023.6,000.0,032.6,025.5,12.5,0000.0,0007.38,0004.19,0003.95
2024-01-25 20:48:00,SystemResetWarning,0824.9,5.00,000.00,024.3,023.5,000.0,032.6,025.5,12.4,0000.0,0007.76,0004.13,0003.91
2024-01-25 20:49:00,SystemResetWarning,0825.0,5.00,000.00,024.3,023.5,000.0,032.6,025.5,12.4,0000.0,0007.44,0004.13,0003.91
2024-01-25 20:50:00,SystemResetWarning,0825.0,5.00,000.00,024.2,023.5,000.0,032.6,025.5,12.5,0000.0,0007.51,0004.14,0003.91
2024-01-25 20:51:00,SystemResetWarning,0825.0,5.00,000.00,024.2,023.5,000.0,032.6,025.5,12.5,0000.0,0007.49,0004.15,0003.91
2024-01-25 20:52:00,SystemResetWarning,0825.0,5.00,000.00,024.2,023.5,000.0,032.6,025.5,12.7,0000.0,0007.57,0004.20,0003.93
2024-01-25 20:53:00,SystemResetWarning,0825.0,5.00,000.00,024.2,023.5,000.0,032.6,025.5,12.7,0000.0,0007.70,0004.27,0003.97
2024-01-25 20:54:00,SystemResetWarning,0825.0,5.00,000.00,024.2,023.5,000.0,032.6,025.5,12.7,0000.0,0007.76,0004.32,0004.02
2024-01-25 20:55:00,SystemResetWarning,0825.0,5.00,000.00,024.2,023.5,000.0,032.6,025.5,12.7,0000.0,0007.99,0004.39,0004.10
2024-01-25 20:56:00,SystemResetWarning,0825.0,5.00,000.00,024.2,023.5,000.0,032.6,025.5,12.7,0000.0,0008.02,0004.44,0004.17
2024-01-25 20:57:00,SystemResetWarning,0825.0,5.01,000.00,024.2,023.5,000.0,032.6,025.5,12.7,0000.0,0008.09,0004.52,0004.25
2024-01-25 20:58:00,SystemResetWarning,0824.9,5.00,000.00,024.2,023.6,000.0,032.6,025.5,12.8,0000.0,0008.28,0004.60,0004.32
2024-01-25 20:59:00,SystemResetWarning,0825.0,5.00,000.00,024.3,023.6,000.0,032.6,025.5,12.8,0000.0,0008.42,0004.61,0004.34
